User: anonymous   Login
Location: Fort Wayne
(41.1310°N, 85.1290°W)
Time: 20:27:36
(UTC-04:00)
Language:

Cosmos 2082 - Orbit

View from above orbital plane
View from above orbital plane
View from above satellite
View from above satellite

Ground track
Ground track

The orbit data is extracted from the following two-line orbital elements,

1 20624U 90046A   16239.95290564 +.00000066 +00000-0 +59484-4 0  9990
2 20624 071.0410 110.4037 0013013 119.6168 240.6252 14.14210972355370
Epoch (UTC): 26 August 2016 22:52:11
Eccentricity: 0.0013013
inclination: 71.0410°
perigee height: 835 km
apogee height: 854 km
right ascension of ascending node: 110.4037°
argument of perigee: 119.6168°
revolutions per day: 14.14210972
mean anomaly at epoch: 240.6252°
orbit number at epoch: 35537

The dashed part of the orbit path shows where the satellite is in the earth's shadow,  

DLR